Lid_Strength_Index
10 3 3 3 2 2 1 1 0 0 0 0 -0 -0 -0 -0 -0 -0 0 -0 0 0 0 0 0 -1 0 -0 -0 -0 0 1
10 10 4 3 2 2 2 1 1 0 0 0 0 0 0 -0 -0 0 0 0 0 0 0 0 0 0 0 0 0 0 1 1
8 8 8 2 3 2 2 2 1 1 0 0 0 0 0 0 -0 -0 0 0 1 0 0 0 0 0 0 1 2 1 2 2
9 8 8 3 2 3 3 3 2 1 1 1 1 1 0 1 0 -0 0 0 0 0 1 1 1 0 1 1 2 2 2 1
9 8 8 4 2 2 3 3 3 2 2 2 1 1 1 1 0 0 0 1 0 1 0 1 0 1 1 2 2 1 2 1
8 8 8 6 2 2 2 2 2 3 3 2 2 1 1 1 0 0 0 0 0 1 1 2 1 1 1 1 1 1 2 2
8 7 7 7 2 2 2 2 3 3 4 3 3 2 2 0 0 0 0 0 -0 0 1 2 1 0 0 1 2 2 2 3
7 7 7 7 2 2 2 1 2 3 2 3 2 2 2 1 0 0 0 1 0 1 1 2 0 1 2 2 2 2 2 3
6 7 6 6 3 2 2 2 1 2 2 2 2 2 1 1 0 1 0 0 0 2 2 0 1 2 2 2 2 3 4 3
6 7 8 7 5 2 2 2 2 2 1 1 1 1 1 1 1 1 1 0 1 1 0 1 2 2 2 2 2 3 4 3
7 6 7 8 7 3 2 2 2 1 1 2 1 1 1 2 1 2 1 0 1 0 0 2 2 2 2 3 3 3 4 3
7 6 6 7 8 3 2 2 2 2 1 2 2 3 3 2 2 1 1 1 0 0 1 1 2 2 3 3 3 3 3 4
6 6 6 5 5 6 2 2 2 2 2 2 2 2 2 2 2 2 1 1 0 0 1 2 2 3 4 4 4 3 3 4
7 6 6 6 5 5 2 2 2 2 2 2 2 2 2 2 2 2 2 1 1 1 2 2 3 4 3 3 3 4 5 5
6 5 6 6 6 5 3 3 3 2 2 2 2 2 2 2 2 2 2 2 2 2 3 3 4 4 3 3 4 5 5 6
5 5 5 5 5 6 3 3 3 2 2 2 2 2 2 2 2 2 2 2 1 3 3 4 4 4 4 4 5 6 7 7
5 4 5 4 4 5 3 3 3 2 2 2 2 2 2 2 2 1 1 1 2 4 4 4 4 5 5 5 6 7 7 8
5 5 4 4 4 4 2 3 3 2 2 2 2 2 2 1 2 2 1 1 2 4 4 5 5 6 6 6 7 7 8 7
6 4 4 3 4 4 3 3 3 3 2 2 2 2 2 1 2 1 1 2 3 4 4 5 6 7 6 8 8 8 8 9
5 4 4 4 5 5 4 3 3 3 2 2 2 2 2 2 2 2 2 3 3 3 5 5 6 6 8 8 7 8 10 11